Yuma MCAS, AZ

6:05 PM MST on July 27, 2017 (GMT -0700)
Yuma Marine Corps Air Station

Weather History for KNYL - October, 2010

Change the Weather History Date:

Sunday, October 24, 2010

  Actual Average Record
Temperature  
Mean Temperature 71 °F 74 °F  
Max Temperature 82 °F 87 °F 105 °F (1959)
Min Temperature 59 °F 62 °F 45 °F (1923)
Degree Days  
Heating Degree Days 0 0  
Month to date heating degree days 0 0  
Since 1 July heating degree days 0 0  
Cooling Degree Days 6 10  
Month to date cooling degree days 322 332  
Year to date cooling degree days 4252 4506  
Growing Degree Days 20 (Base 50)    
Moisture  
Dew Point 50 °F    
Average Humidity 49    
Maximum Humidity 67    
Minimum Humidity 30    
Precipitation  
Precipitation 0.00 in 0.00 in 0.54 in (1987)
Month to date precipitation 0.06 0.17  
Year to date precipitation 4.43 2.79  
Sea Level Pressure  
Sea Level Pressure 29.97 in    
Wind  
Wind Speed 3 mph (SW)    
Max Wind Speed 9 mph    
Max Gust Speed 12 mph    
Visibility 10 miles    
Events      
T = Trace of Precipitation, MM = Missing Value Source: NWS Daily Summary

Daily Weather History Graph

Daily Weather History Graph

Search for Another Location

Airport or City:

Trip Planner

Search our weather history database for the weather conditions in past years. The results will help you decide how hot, cold, wet, or windy it might be!

Date:

Astronomy

Oct. 24, 2010 Rise Set
Actual Time 6:49 AM MST 5:55 PM MST
Civil Twilight 6:24 AM MST 6:20 PM MST
Nautical Twilight 5:55 AM MST 6:49 PM MST
Astronomical Twilight 5:26 AM MST 7:17 PM MST
Moon 6:50 PM MST (10/24) 8:25 AM MST (10/24)
Length of Visible Light 11h 56m
Length of Day
11h 05m
Full, 97% of the Moon is Illuminated
Oct 24
Full
Oct 30
Last Quarter
Nov 5
New
Nov 13
First Quarter
Nov 21
Full

Hourly Weather History & Observations

Time (MST) Temp. Dew Point Humidity Pressure Visibility Wind Dir Wind Speed Gust Speed Precip Events Conditions
12:55 AM 66.9 °F 48.9 °F 52% 30.01 in 10.0 mi NNW 3.5 mph - N/A   Clear
1:55 AM 64.0 °F 48.9 °F 58% 30.01 in 10.0 mi Calm Calm - N/A   Clear
2:55 AM 62.1 °F 48.9 °F 62% 30.00 in 10.0 mi Calm Calm - N/A   Clear
3:55 AM 62.1 °F 48.0 °F 60% 30.00 in 10.0 mi Calm Calm - N/A   Clear
4:55 AM 61.0 °F 48.0 °F 62% 30.00 in 10.0 mi Calm Calm - N/A   Clear
5:55 AM 60.1 °F 48.0 °F 64% 30.01 in 10.0 mi Calm Calm - N/A   Clear
6:55 AM 59.0 °F 48.0 °F 67% 30.01 in 10.0 mi Calm Calm - N/A   Scattered Clouds
7:55 AM 64.0 °F 50.0 °F 60% 30.03 in 10.0 mi Calm Calm - N/A   Scattered Clouds
8:55 AM 69.1 °F 51.1 °F 53% 30.06 in 10.0 mi NNE 3.5 mph - N/A   Scattered Clouds
9:55 AM 70.0 °F 50.0 °F 49% 30.05 in 10.0 mi Calm Calm - N/A   Mostly Cloudy
10:55 AM 73.0 °F 50.0 °F 44% 30.02 in 10.0 mi Calm Calm - N/A   Mostly Cloudy
11:55 AM 75.9 °F 48.9 °F 38% 30.01 in 10.0 mi SSW 6.9 mph - N/A   Mostly Cloudy
12:55 PM 78.1 °F 48.9 °F 36% 29.99 in 10.0 mi SSW 6.9 mph - N/A   Mostly Cloudy
1:55 PM 80.1 °F 48.9 °F 34% 29.97 in 10.0 mi SSW 5.8 mph - N/A   Mostly Cloudy
2:55 PM 81.0 °F 48.0 °F 31% 29.95 in 10.0 mi WSW 4.6 mph - N/A   Scattered Clouds
3:55 PM 81.0 °F 48.0 °F 31% 29.94 in 10.0 mi South 6.9 mph - N/A   Scattered Clouds
4:55 PM 80.1 °F 46.9 °F 31% 29.93 in 10.0 mi SSW 4.6 mph - N/A   Mostly Cloudy
5:55 PM 79.0 °F 48.9 °F 35% 29.91 in 10.0 mi SSW 3.5 mph - N/A   Mostly Cloudy
6:55 PM 75.0 °F 51.1 °F 43% 29.90 in 10.0 mi South 3.5 mph - N/A   Mostly Cloudy
7:55 PM 73.0 °F 50.0 °F 44% 29.90 in 10.0 mi SSW 4.6 mph - N/A   Scattered Clouds
8:55 PM 72.0 °F 51.1 °F 48% 29.90 in 10.0 mi SW 4.6 mph - N/A   Scattered Clouds
9:55 PM 70.0 °F 54.0 °F 57% 29.90 in 10.0 mi SW 3.5 mph - N/A   Scattered Clouds
10:55 PM 68.0 °F 55.0 °F 63% 29.88 in 10.0 mi SSW 5.8 mph - N/A   Scattered Clouds
11:55 PM 69.1 °F 59.0 °F 70% 29.88 in 10.0 mi West 3.5 mph - N/A   Scattered Clouds